THY35C HTZA-HTKJ

Flight info

Callsign THY35C
Flight time N/A
Altitude 28000
Route OKBEM DCT MUMTU ERBEP2A
Aircraft B739/M-SDE2E3FGHIRWXY/LB1

Departure

Time N/A
Airport Abeid Amani Karume International Airport (HTZA)

Arrival

Time 2026-05-04 16:08
Airport Kilimanjaro International Airport (HTKJ)
Time Latitude Longitude Altitude Speed Heading
2026-05-04 15:58 -3.84465 37.12443 14276 ft 356 kts 334°
2026-05-04 15:59 -3.82298 37.11254 13855 ft 355 kts 334°
2026-05-04 15:59 -3.80138 37.10069 13409 ft 353 kts 333°
2026-05-04 15:59 -3.77991 37.08893 12988 ft 351 kts 333°
2026-05-04 15:59 -3.75857 37.07721 12575 ft 349 kts 333°
2026-05-04 16:00 -3.73749 37.06533 12175 ft 348 kts 328°
2026-05-04 16:00 -3.71993 37.04876 11765 ft 347 kts 310°
2026-05-04 16:00 -3.70475 37.03010 11381 ft 345 kts 311°
2026-05-04 16:00 -3.68950 37.01159 10997 ft 344 kts 311°
2026-05-04 16:01 -3.67421 36.99321 10596 ft 343 kts 310°
2026-05-04 16:01 -3.65908 36.97513 10454 ft 334 kts 311°
2026-05-04 16:01 -3.64427 36.95750 10231 ft 328 kts 311°
2026-05-04 16:01 -3.62976 36.94029 10095 ft 319 kts 311°
2026-05-04 16:02 -3.61559 36.92347 9923 ft 311 kts 311°
2026-05-04 16:02 -3.60197 36.90732 9928 ft 297 kts 311°
2026-05-04 16:02 -3.57425 36.87767 9481 ft 283 kts 332°
2026-05-04 16:03 -3.55618 36.87120 9290 ft 273 kts 354°
2026-05-04 16:03 -3.53737 36.86995 8978 ft 271 kts
2026-05-04 16:03 -3.51795 36.86939 8224 ft 288 kts 360°
2026-05-04 16:03 -3.49774 36.86873 7520 ft 301 kts 359°
2026-05-04 16:04 -3.47659 36.86802 6822 ft 307 kts
2026-05-04 16:04 -3.44327 36.88664 6246 ft 265 kts 66°
2026-05-04 16:04 -3.43854 36.90379 6160 ft 239 kts 84°
2026-05-04 16:05 -3.43649 36.91910 6189 ft 215 kts 81°
2026-05-04 16:05 -3.43160 36.93328 5611 ft 223 kts 62°
2026-05-04 16:05 -3.42527 36.96172 4937 ft 214 kts 103°
2026-05-04 16:06 -3.42871 36.97593 4569 ft 207 kts 99°
2026-05-04 16:06 -3.43110 37.01175 3881 ft 178 kts 90°
2026-05-04 16:07 -3.43200 37.02767 3579 ft 169 kts 92°
2026-05-04 16:07 -3.43005 37.06215 2958 ft 154 kts 86°
2026-05-04 16:08 -3.42953 37.07160 2946 ft 110 kts 88°
2026-05-04 16:08 -3.42926 37.07839 2943 ft 12 kts 272°
2026-05-04 16:09 -3.42937 37.07504 2937 ft 29 kts 269°
2026-05-04 16:09 -3.42911 37.07132 2940 ft 26 kts 296°
2026-05-04 16:10 -3.42895 37.06848 2940 ft 21 kts 237°
2026-05-04 16:11 -3.42899 37.06850 2945 ft 8 kts 60°
2026-05-04 16:11 -3.42857 37.06907 2944 ft 13 kts 64°
2026-05-04 16:12 -3.42716 37.06747 2946 ft 13 kts 267°
2026-05-04 16:12 -3.42662 37.06501 2944 ft 13 kts 267°
2026-05-04 16:13 -3.42634 37.06470 2943 ft 6 kts 78°
2026-05-04 16:13 -3.42632 37.06504 2943 ft 0 kts 87°